,,,PA_Meas_PMT16A,,PR_Meas_QMR101_102,,RH_Meas_QMH101,,SR_Meas_QMS101,,TA_Meas_QMH101,,GenWind,,GenWind,
date,time,status,PA,status,PR,status,RH,status,SR,status,TA,status,DirAvg,status,SpdAvg,
2011-06-30, 00:00:04,VALID,1001.09,VALID,0,VALID,77.9518,VALID,0,VALID,22.9403,VALID,33,VALID,0.9875,
2011-06-30, 00:01:04,VALID,1001.15,VALID,0,VALID,78.463,VALID,0,VALID,22.8623,VALID,33,VALID,0.498828,
2011-06-30, 00:02:04,VALID,1001.13,VALID,0,VALID,79.0886,VALID,0,VALID,22.7452,VALID,33,VALID,0.308594,
2011-06-30, 00:03:04,VALID,1001.1,VALID,0,VALID,79.5235,VALID,0,VALID,22.6477,VALID,33,VALID,0.162891,
2011-06-30, 00:04:04,VALID,1001.09,VALID,0,VALID,80.0347,VALID,0,VALID,22.5696,VALID,33,VALID,0.558203,
2011-06-30, 00:05:04,VALID,1001.11,VALID,0,VALID,80.5154,VALID,0,VALID,22.5306,VALID,33,VALID,0.49375,
2011-06-30, 00:06:04,VALID,1001.12,VALID,0,VALID,80.584,VALID,0,VALID,22.4704,VALID,76,VALID,0.579297,
2011-06-30, 00:07:04,VALID,1001.04,VALID,0,VALID,80.5612,VALID,0,VALID,22.4721,VALID,76,VALID,0.524609,
2011-06-30, 00:08:04,VALID,1001.06,VALID,0,VALID,80.5917,VALID,0,VALID,22.4526,VALID,76,VALID,0.782422,
2011-06-30, 00:09:04,VALID,1001.07,VALID,0,VALID,80.7061,VALID,0.112286,VALID,22.4331,VALID,92,VALID,1.23984,
2011-06-30, 00:10:04,VALID,1001.09,VALID,0,VALID,80.6985,VALID,0,VALID,22.4704,VALID,94,VALID,0.923047,
2011-06-30, 00:11:04,VALID,1001.12,VALID,0,VALID,80.79,VALID,0,VALID,22.5111,VALID,95,VALID,1.00117,
2011-06-30, 00:12:04,VALID,1001.12,VALID,0,VALID,80.874,VALID,0,VALID,22.5111,VALID,92,VALID,1.03164,
2011-06-30, 00:13:04,VALID,1001.15,VALID,0,VALID,80.6832,VALID,0,VALID,22.5306,VALID,100,VALID,0.380859,
2011-06-30, 00:14:04,VALID,1001.17,VALID,0,VALID,81.08,VALID,0,VALID,22.4899,VALID,101,VALID,1.16016,
2011-06-30, 00:15:04,VALID,1001.14,VALID,0,VALID,81.2326,VALID,0,VALID,22.4916,VALID,84,VALID,0.697656,
2011-06-30, 00:16:04,VALID,1001.15,VALID,0,VALID,81.0037,VALID,0,VALID,22.4721,VALID,81,VALID,0.235547,
2011-06-30, 00:17:04,VALID,1001.16,VALID,0,VALID,80.9732,VALID,0,VALID,22.4331,VALID,81,VALID,0.211328,
2011-06-30, 00:18:04,VALID,1001.19,VALID,0,VALID,81.5912,VALID,0,VALID,22.3729,VALID,107,VALID,0.963281,
2011-06-30, 00:19:04,VALID,1001.18,VALID,0,VALID,81.759,VALID,0,VALID,22.4136,VALID,120,VALID,1.36953,
2011-06-30, 00:20:04,VALID,1001.18,VALID,0,VALID,81.4767,VALID,0,VALID,22.4331,VALID,119,VALID,1.07734,
2011-06-30, 00:21:04,VALID,1001.15,VALID,0,VALID,81.408,VALID,0,VALID,22.4526,VALID,104,VALID,0.945313,
2011-06-30, 00:22:04,VALID,1001.12,VALID,0,VALID,81.2707,VALID,0,VALID,22.4526,VALID,93,VALID,0.849609,
2011-06-30, 00:23:04,VALID,1001.13,VALID,0,VALID,80.9808,VALID,0,VALID,22.4331,VALID,135,VALID,1.27617,
2011-06-30, 00:24:04,VALID,1001.13,VALID,0,VALID,80.874,VALID,0,VALID,22.4331,VALID,120,VALID,0.967969,
2011-06-30, 00:25:04,VALID,1001.12,VALID,0,VALID,81.141,VALID,0.112286,VALID,22.4331,VALID,113,VALID,0.845312,
2011-06-30, 00:26:04,VALID,1001.16,VALID,0,VALID,81.2402,VALID,0,VALID,22.3941,VALID,107,VALID,1.04648,
2011-06-30, 00:27:04,VALID,1001.1,VALID,0,VALID,80.6603,VALID,0,VALID,22.3941,VALID,94,VALID,0.948438,
2011-06-30, 00:28:04,VALID,1001.17,VALID,0,VALID,79.9126,VALID,0,VALID,22.3941,VALID,132,VALID,1.38164,
2011-06-30, 00:29:04,VALID,1001.15,VALID,0,VALID,78.8445,VALID,0,VALID,22.4721,VALID,132,VALID,1.0707,
2011-06-30, 00:30:04,VALID,1001.16,VALID,0,VALID,79.4854,VALID,0,VALID,22.5111,VALID,133,VALID,0.519531,
2011-06-30, 00:31:04,VALID,1001.2,VALID,0,VALID,79.9203,VALID,0,VALID,22.5306,VALID,133,VALID,0.286719,
2011-06-30, 00:32:04,VALID,1001.16,VALID,0,VALID,79.1115,VALID,0,VALID,22.4916,VALID,143,VALID,1.59063,
2011-06-30, 00:33:04,VALID,1001.15,VALID,0,VALID,78.7453,VALID,0,VALID,22.5111,VALID,125,VALID,0.845703,
2011-06-30, 00:34:04,VALID,1001.13,VALID,0,VALID,78.4096,VALID,0,VALID,22.5501,VALID,130,VALID,0.277734,
2011-06-30, 00:35:04,VALID,1001.14,VALID,0,VALID,78.2723,VALID,0,VALID,22.5696,VALID,133,VALID,0.378125,
2011-06-30, 00:36:04,VALID,1001.11,VALID,0,VALID,77.7687,VALID,0,VALID,22.6087,VALID,152,VALID,1.05078,
2011-06-30, 00:37:04,VALID,1001.1,VALID,0,VALID,77.2423,VALID,0,VALID,22.8037,VALID,172,VALID,1.95,
2011-06-30, 00:38:04,VALID,1001.04,VALID,0,VALID,76.8913,VALID,0,VALID,22.8995,VALID,165,VALID,1.26953,
2011-06-30, 00:39:04,VALID,1001.01,VALID,0,VALID,76.4259,VALID,0,VALID,22.9598,VALID,140,VALID,1.06367,
2011-06-30, 00:40:04,VALID,1001.01,VALID,0,VALID,76.2504,VALID,0,VALID,22.9988,VALID,139,VALID,1.20625,
2011-06-30, 00:41:04,VALID,1000.99,VALID,0,VALID,76.7387,VALID,0.112286,VALID,22.9988,VALID,76,VALID,0.778516,
2011-06-30, 00:42:04,VALID,1001,VALID,0,VALID,77.3415,VALID,0,VALID,22.8995,VALID,100,VALID,0.667969,
2011-06-30, 00:43:04,VALID,1001,VALID,0,VALID,76.8455,VALID,0,VALID,22.802,VALID,176,VALID,2.1418,
2011-06-30, 00:44:04,VALID,1001,VALID,0,VALID,75.8766,VALID,0.112286,VALID,22.9403,VALID,169,VALID,1.91719,
2011-06-30, 00:45:04,VALID,1000.94,VALID,0,VALID,75.373,VALID,0,VALID,23.0556,VALID,139,VALID,1.09375,
2011-06-30, 00:46:04,VALID,1000.94,VALID,0,VALID,75.0907,VALID,0,VALID,23.1354,VALID,136,VALID,1.2625,
2011-06-30, 00:47:04,VALID,1000.93,VALID,0,VALID,74.6253,VALID,0,VALID,23.1939,VALID,148,VALID,1.4957,
2011-06-30, 00:48:04,VALID,1000.88,VALID,0,VALID,74.5338,VALID,0,VALID,23.2134,VALID,156,VALID,1.0625,
2011-06-30, 00:49:04,VALID,1000.87,VALID,0,VALID,74.1218,VALID,0,VALID,23.2524,VALID,166,VALID,0.726953,
2011-06-30, 00:50:04,VALID,1000.83,VALID,0,VALID,73.9539,VALID,0,VALID,23.2719,VALID,156,VALID,0.624609,
2011-06-30, 00:51:04,VALID,1000.89,VALID,0,VALID,74.6482,VALID,0,VALID,23.2915,VALID,130,VALID,0.816016,
2011-06-30, 00:52:04,VALID,1000.86,VALID,0,VALID,74.9458,VALID,0,VALID,23.1921,VALID,114,VALID,0.953906,
2011-06-30, 00:53:04,VALID,1000.9,VALID,0,VALID,74.3506,VALID,0,VALID,23.1939,VALID,146,VALID,1.17344,
2011-06-30, 00:54:04,VALID,1000.88,VALID,0,VALID,74.5643,VALID,0,VALID,23.2134,VALID,138,VALID,1.00039,
2011-06-30, 00:55:04,VALID,1000.89,VALID,0,VALID,74.9076,VALID,0,VALID,23.1939,VALID,123,VALID,0.701953,
2011-06-30, 00:56:04,VALID,1000.9,VALID,0,VALID,75.3501,VALID,0,VALID,23.1354,VALID,133,VALID,1.11641,
2011-06-30, 00:57:04,VALID,1000.93,VALID,0,VALID,75.5714,VALID,0,VALID,23.0964,VALID,136,VALID,0.820313,
2011-06-30, 00:58:04,VALID,1000.85,VALID,0,VALID,75.6935,VALID,0,VALID,23.0573,VALID,136,VALID,0.585938,
2011-06-30, 00:59:04,VALID,1000.9,VALID,0,VALID,75.8308,VALID,0,VALID,23.0573,VALID,136,VALID,0.265625,
2011-06-30, 01:00:04,VALID,1000.91,VALID,0,VALID,76.258,VALID,0,VALID,22.9988,VALID,141,VALID,0.459766,
2011-06-30, 01:01:04,VALID,1000.87,VALID,0,VALID,76.3572,VALID,0,VALID,22.9403,VALID,151,VALID,0.775781,
2011-06-30, 01:02:04,VALID,1000.84,VALID,0,VALID,76.6777,VALID,0,VALID,22.8818,VALID,150,VALID,0.245312,
2011-06-30, 01:03:04,VALID,1000.84,VALID,0,VALID,77.8908,VALID,0,VALID,22.8232,VALID,150,VALID,0.5875,
2011-06-30, 01:04:04,VALID,1000.83,VALID,0,VALID,78.3943,VALID,0,VALID,22.7062,VALID,150,VALID,0.566016,
2011-06-30, 01:05:04,VALID,1000.81,VALID,0,VALID,78.8369,VALID,0,VALID,22.6087,VALID,150,VALID,0.447266,
2011-06-30, 01:06:04,VALID,1000.82,VALID,0,VALID,79.4243,VALID,0,VALID,22.5111,VALID,150,VALID,0.3375,
2011-06-30, 01:07:04,VALID,1000.77,VALID,0,VALID,79.966,VALID,0,VALID,22.3941,VALID,339,VALID,0.979688,
2011-06-30, 01:08:04,VALID,1000.79,VALID,0,VALID,80.668,VALID,0,VALID,22.2576,VALID,353,VALID,0.787109,
2011-06-30, 01:09:04,VALID,1000.79,VALID,0,VALID,81.2783,VALID,0,VALID,22.121,VALID,353,VALID,0.390234,
2011-06-30, 01:10:04,VALID,1000.76,VALID,0,VALID,81.9803,VALID,0,VALID,22.043,VALID,356,VALID,0.445703,
2011-06-30, 01:11:04,VALID,1000.72,VALID,0,VALID,82.5906,VALID,0,VALID,21.965,VALID,346,VALID,0.817969,
2011-06-30, 01:12:04,VALID,1000.7,VALID,0,VALID,83.0637,VALID,0,VALID,21.9845,VALID,345,VALID,1.18477,
2011-06-30, 01:13:04,VALID,1000.68,VALID,0,VALID,83.2239,VALID,0,VALID,21.9845,VALID,345,VALID,0.777344,
2011-06-30, 01:14:04,VALID,1000.67,VALID,0,VALID,83.056,VALID,0,VALID,21.9633,VALID,7,VALID,0.558594,
2011-06-30, 01:15:04,VALID,1000.61,VALID,0,VALID,82.8119,VALID,0,VALID,22.004,VALID,11,VALID,0.925781,
2011-06-30, 01:16:04,VALID,1000.6,VALID,0,VALID,82.0642,VALID,0,VALID,22.082,VALID,11,VALID,1.06094,
2011-06-30, 01:17:04,VALID,1000.59,VALID,0,VALID,81.6903,VALID,0,VALID,22.16,VALID,11,VALID,1.19258,
2011-06-30, 01:18:04,VALID,1000.6,VALID,0,VALID,81.347,VALID,0,VALID,22.1974,VALID,11,VALID,0.644531,
2011-06-30, 01:19:04,VALID,1000.58,VALID,0,VALID,81.9726,VALID,0,VALID,22.1389,VALID,257,VALID,0.831641,
2011-06-30, 01:20:04,VALID,1000.58,VALID,0,VALID,82.0566,VALID,0,VALID,22.1405,VALID,257,VALID,0.377734,
2011-06-30, 01:21:04,VALID,1000.58,VALID,0,VALID,81.9269,VALID,0,VALID,22.1389,VALID,257,VALID,0.313281,
2011-06-30, 01:22:04,VALID,1000.58,VALID,0,VALID,81.0189,VALID,0,VALID,22.1795,VALID,257,VALID,0.116797,
2011-06-30, 01:23:04,VALID,1000.59,VALID,0,VALID,81.0189,VALID,0,VALID,22.199,VALID,257,VALID,0.402344,
2011-06-30, 01:24:04,VALID,1000.56,VALID,0,VALID,80.9198,VALID,0,VALID,22.199,VALID,42,VALID,0.630469,
2011-06-30, 01:25:04,VALID,1000.56,VALID,0,VALID,81.4691,VALID,0,VALID,22.16,VALID,44,VALID,1.14102,
2011-06-30, 01:26:04,VALID,1000.51,VALID,0,VALID,81.6827,VALID,0,VALID,22.1405,VALID,56,VALID,1.23867,
2011-06-30, 01:27:04,VALID,1000.51,VALID,0,VALID,81.3546,VALID,0,VALID,22.1405,VALID,31,VALID,1.66211,
2011-06-30, 01:28:04,VALID,1000.51,VALID,0,VALID,81.3089,VALID,0,VALID,22.1405,VALID,38,VALID,1.21797,
2011-06-30, 01:29:04,VALID,1000.52,VALID,0,VALID,81.8887,VALID,0,VALID,22.082,VALID,37,VALID,1.01641,
2011-06-30, 01:30:04,VALID,1000.52,VALID,0,VALID,82.6974,VALID,0,VALID,21.9455,VALID,26,VALID,0.838672,
2011-06-30, 01:31:04,VALID,1000.5,VALID,0,VALID,83.262,VALID,0,VALID,21.7895,VALID,27,VALID,1.16484,
2011-06-30, 01:32:04,VALID,1000.52,VALID,0,VALID,83.8114,VALID,0,VALID,21.653,VALID,69,VALID,1.10195,
2011-06-30, 01:33:04,VALID,1000.48,VALID,0,VALID,84.7193,VALID,0,VALID,21.5555,VALID,50,VALID,1.75078,
2011-06-30, 01:34:04,VALID,1000.47,VALID,0,VALID,85.7493,VALID,0,VALID,21.497,VALID,47,VALID,1.76875,
2011-06-30, 01:35:04,VALID,1000.48,VALID,0,VALID,86.2529,VALID,0,VALID,21.419,VALID,7,VALID,0.959766,
2011-06-30, 01:36:04,VALID,1000.46,VALID,0,VALID,86.5504,VALID,0,VALID,21.38,VALID,31,VALID,1.37695,
2011-06-30, 01:37:04,VALID,1000.5,VALID,0,VALID,86.8709,VALID,0,VALID,21.3426,VALID,45,VALID,0.861328,
2011-06-30, 01:38:04,VALID,1000.43,VALID,0,VALID,87.2981,VALID,0,VALID,21.2825,VALID,45,VALID,1.35078,
2011-06-30, 01:39:04,VALID,1000.44,VALID,0,VALID,87.4202,VALID,0,VALID,21.2825,VALID,40,VALID,1.34531,
2011-06-30, 01:40:04,VALID,1000.41,VALID,0,VALID,87.4812,VALID,0,VALID,21.2435,VALID,24,VALID,1.15625,
2011-06-30, 01:41:04,VALID,1000.41,VALID,0,VALID,87.6109,VALID,0,VALID,21.2045,VALID,332,VALID,0.951172,
2011-06-30, 01:42:04,VALID,1000.45,VALID,0,VALID,87.9237,VALID,0,VALID,21.185,VALID,331,VALID,0.805469,
2011-06-30, 01:43:04,VALID,1000.39,VALID,0,VALID,87.878,VALID,0,VALID,21.2045,VALID,325,VALID,0.9875,
2011-06-30, 01:44:04,VALID,1000.42,VALID,0,VALID,87.5346,VALID,0.112286,VALID,21.2029,VALID,356,VALID,0.619531,
2011-06-30, 01:45:04,VALID,1000.43,VALID,0,VALID,87.2981,VALID,0,VALID,21.2435,VALID,16,VALID,0.292969,
2011-06-30, 01:46:04,VALID,1000.45,VALID,0,VALID,87.2752,VALID,0.112286,VALID,21.2224,VALID,31,VALID,0.553516,
2011-06-30, 01:47:04,VALID,1000.44,VALID,0,VALID,87.0234,VALID,0.112286,VALID,21.224,VALID,63,VALID,0.780078,
2011-06-30, 01:48:04,VALID,1000.43,VALID,0,VALID,86.7946,VALID,0,VALID,21.2825,VALID,82,VALID,1.20273,
2011-06-30, 01:49:04,VALID,1000.4,VALID,0,VALID,86.7793,VALID,0.112286,VALID,21.341,VALID,80,VALID,1.18242,
2011-06-30, 01:50:04,VALID,1000.39,VALID,0,VALID,86.9014,VALID,0,VALID,21.302,VALID,80,VALID,1.32461,
2011-06-30, 01:51:04,VALID,1000.37,VALID,0,VALID,87.115,VALID,0,VALID,21.3215,VALID,80,VALID,1.10312,
2011-06-30, 01:52:04,VALID,1000.36,VALID,0,VALID,87.2523,VALID,0.112286,VALID,21.302,VALID,80,VALID,0.971484,
2011-06-30, 01:53:04,VALID,1000.33,VALID,0,VALID,87.5728,VALID,0,VALID,21.2825,VALID,63,VALID,1.17734,
2011-06-30, 01:54:04,VALID,1000.34,VALID,0,VALID,87.8322,VALID,0.112286,VALID,21.263,VALID,61,VALID,0.523828,
2011-06-30, 01:55:04,VALID,1000.35,VALID,0,VALID,87.9466,VALID,0,VALID,21.2045,VALID,61,VALID,0.161719,
2011-06-30, 01:56:04,VALID,1000.34,VALID,0,VALID,88.2747,VALID,0,VALID,21.2045,VALID,40,VALID,0.670703,
2011-06-30, 01:57:04,VALID,1000.33,VALID,0,VALID,88.496,VALID,0.112286,VALID,21.2045,VALID,9,VALID,1.28789,
2011-06-30, 01:58:04,VALID,1000.32,VALID,0,VALID,88.6333,VALID,0,VALID,21.224,VALID,347,VALID,1.31445,
2011-06-30, 01:59:04,VALID,1000.34,VALID,0,VALID,88.5036,VALID,0,VALID,21.185,VALID,27,VALID,0.203125,
2011-06-30, 02:00:04,VALID,1000.35,VALID,0,VALID,88.5036,VALID,0.112286,VALID,21.1249,VALID,27,VALID,0.749609,
2011-06-30, 02:01:04,VALID,1000.36,VALID,0,VALID,88.7325,VALID,0,VALID,21.107,VALID,359,VALID,0.86875,
2011-06-30, 02:02:04,VALID,1000.35,VALID,0,VALID,88.9156,VALID,0,VALID,21.0875,VALID,351,VALID,0.757813,
2011-06-30, 02:03:04,VALID,1000.35,VALID,0,VALID,88.9385,VALID,0,VALID,21.0469,VALID,351,VALID,0.647266,
2011-06-30, 02:04:04,VALID,1000.3,VALID,0,VALID,89.1063,VALID,0,VALID,21.029,VALID,14,VALID,1.25469,
2011-06-30, 02:05:04,VALID,1000.32,VALID,0,VALID,89.3428,VALID,0,VALID,21.0079,VALID,21,VALID,1.6418,
2011-06-30, 02:06:04,VALID,1000.33,VALID,0,VALID,89.5336,VALID,0,VALID,20.99,VALID,26,VALID,1.57422,
2011-06-30, 02:07:04,VALID,1000.27,VALID,0,VALID,89.6709,VALID,0.112286,VALID,20.99,VALID,6,VALID,1.30078,
2011-06-30, 02:08:04,VALID,1000.27,VALID,0,VALID,89.7091,VALID,0,VALID,21.0095,VALID,11,VALID,0.883984,
2011-06-30, 02:09:04,VALID,1000.26,VALID,0,VALID,89.5565,VALID,0.112286,VALID,20.99,VALID,332,VALID,1.00156,
2011-06-30, 02:10:04,VALID,1000.21,VALID,0,VALID,89.5641,VALID,0,VALID,21.0095,VALID,311,VALID,1.27891,
2011-06-30, 02:11:04,VALID,1000.24,VALID,0,VALID,89.3352,VALID,0.112286,VALID,21.0469,VALID,314,VALID,0.855469,
2011-06-30, 02:12:04,VALID,1000.19,VALID,0,VALID,88.9232,VALID,0.112286,VALID,21.1249,VALID,321,VALID,0.692969,
2011-06-30, 02:13:04,VALID,1000.17,VALID,0,VALID,88.5417,VALID,0.112286,VALID,21.185,VALID,321,VALID,0.626953,
2011-06-30, 02:14:04,VALID,1000.17,VALID,0,VALID,88.2518,VALID,0.112286,VALID,21.224,VALID,321,VALID,0.357031,
2011-06-30, 02:15:04,VALID,1000.2,VALID,0,VALID,88.0687,VALID,0.112286,VALID,21.2419,VALID,319,VALID,0.450781,
2011-06-30, 02:16:04,VALID,1000.18,VALID,0,VALID,87.9543,VALID,0,VALID,21.3621,VALID,318,VALID,0.332422,
2011-06-30, 02:17:04,VALID,1000.14,VALID,0,VALID,87.4507,VALID,0,VALID,21.4206,VALID,333,VALID,0.796484,
2011-06-30, 02:18:04,VALID,1000.13,VALID,0,VALID,87.115,VALID,0,VALID,21.4011,VALID,356,VALID,0.609766,
2011-06-30, 02:19:04,VALID,1000.22,VALID,0,VALID,87.0769,VALID,0,VALID,21.3816,VALID,43,VALID,0.605859,
2011-06-30, 02:20:04,VALID,1000.17,VALID,0,VALID,87.0463,VALID,0,VALID,21.3621,VALID,60,VALID,0.614844,
2011-06-30, 02:21:04,VALID,1000.14,VALID,0,VALID,86.9624,VALID,0,VALID,21.3426,VALID,28,VALID,1.31641,
2011-06-30, 02:22:04,VALID,1000.18,VALID,0,VALID,86.7793,VALID,0,VALID,21.3621,VALID,45,VALID,0.860156,
2011-06-30, 02:23:04,VALID,1000.15,VALID,0,VALID,86.9243,VALID,0,VALID,21.3426,VALID,51,VALID,1.18047,
2011-06-30, 02:24:04,VALID,1000.14,VALID,0,VALID,87.0387,VALID,0,VALID,21.3215,VALID,43,VALID,1.01094,
2011-06-30, 02:25:04,VALID,1000.12,VALID,0,VALID,87.1303,VALID,0,VALID,21.3621,VALID,31,VALID,1.2918,
2011-06-30, 02:26:04,VALID,1000.1,VALID,0,VALID,87.2523,VALID,0,VALID,21.3426,VALID,31,VALID,1.63984,
2011-06-30, 02:27:04,VALID,1000.16,VALID,0,VALID,87.6186,VALID,0,VALID,21.3036,VALID,48,VALID,1.32266,
2011-06-30, 02:28:04,VALID,1000.12,VALID,0,VALID,88.0153,VALID,0,VALID,21.2841,VALID,46,VALID,1.65508,
2011-06-30, 02:29:04,VALID,1000.14,VALID,0,VALID,88.2213,VALID,0,VALID,21.224,VALID,70,VALID,1.36016,
2011-06-30, 02:30:04,VALID,1000.14,VALID,0,VALID,88.3205,VALID,0,VALID,21.2256,VALID,62,VALID,1.17734,
2011-06-30, 02:31:04,VALID,1000.11,VALID,0,VALID,88.5341,VALID,0,VALID,21.2061,VALID,51,VALID,1.26484,
2011-06-30, 02:32:04,VALID,1000.12,VALID,0,VALID,88.7401,VALID,0,VALID,21.1866,VALID,58,VALID,1.14648,
2011-06-30, 02:33:04,VALID,1000.11,VALID,0,VALID,88.7935,VALID,0,VALID,21.2061,VALID,43,VALID,0.961328,
2011-06-30, 02:34:04,VALID,1000.1,VALID,0,VALID,88.7935,VALID,0,VALID,21.1866,VALID,43,VALID,0.432031,
2011-06-30, 02:35:04,VALID,1000.06,VALID,0,VALID,88.7325,VALID,0,VALID,21.1671,VALID,35,VALID,0.504687,
2011-06-30, 02:36:04,VALID,1000,VALID,0,VALID,88.8164,VALID,0,VALID,21.1476,VALID,352,VALID,0.891406,
2011-06-30, 02:37:04,VALID,1000.06,VALID,0,VALID,88.8469,VALID,0,VALID,21.1281,VALID,352,VALID,0.4375,
2011-06-30, 02:38:04,VALID,1000.04,VALID,0,VALID,88.8011,VALID,0,VALID,21.0891,VALID,352,VALID,0.753906,
2011-06-30, 02:39:04,VALID,1000.01,VALID,0,VALID,88.8774,VALID,0,VALID,21.0891,VALID,13,VALID,0.888672,
2011-06-30, 02:40:04,VALID,1000.02,VALID,0,VALID,88.9003,VALID,0,VALID,21.0696,VALID,13,VALID,0.634375,
2011-06-30, 02:41:04,VALID,999.996,VALID,0,VALID,89.03,VALID,0,VALID,21.0696,VALID,56,VALID,0.580469,
2011-06-30, 02:42:04,VALID,999.923,VALID,0,VALID,89.2818,VALID,0,VALID,21.0696,VALID,30,VALID,1.33125,
2011-06-30, 02:43:04,VALID,999.993,VALID,0,VALID,89.2589,VALID,0,VALID,21.0485,VALID,14,VALID,0.596484,
2011-06-30, 02:44:04,VALID,999.974,VALID,0,VALID,89.236,VALID,0,VALID,21.0111,VALID,4,VALID,0.161719,
2011-06-30, 02:45:04,VALID,999.95,VALID,0,VALID,89.4115,VALID,0,VALID,20.9916,VALID,3,VALID,0.517578,
2011-06-30, 02:46:04,VALID,999.958,VALID,0,VALID,89.6404,VALID,0,VALID,21.0111,VALID,48,VALID,0.586719,
2011-06-30, 02:47:04,VALID,999.986,VALID,0,VALID,89.7701,VALID,0,VALID,21.0111,VALID,48,VALID,0.668359,
2011-06-30, 02:48:04,VALID,999.968,VALID,0,VALID,89.9074,VALID,0,VALID,21.0501,VALID,49,VALID,0.466406,
2011-06-30, 02:49:04,VALID,999.947,VALID,0,VALID,90.0906,VALID,0,VALID,21.0875,VALID,77,VALID,0.719531,
2011-06-30, 02:50:04,VALID,999.962,VALID,0,VALID,90.2889,VALID,0,VALID,21.2045,VALID,98,VALID,0.876172,
2011-06-30, 02:51:04,VALID,999.995,VALID,0,VALID,90.144,VALID,0,VALID,21.3816,VALID,115,VALID,1.14297,
2011-06-30, 02:52:04,VALID,999.982,VALID,0,VALID,89.8235,VALID,0,VALID,21.5961,VALID,118,VALID,1.11016,
2011-06-30, 02:53:04,VALID,999.942,VALID,0,VALID,89.1216,VALID,0,VALID,21.77,VALID,134,VALID,1.08633,
2011-06-30, 02:54:04,VALID,999.973,VALID,0,VALID,88,VALID,0,VALID,22.0447,VALID,112,VALID,1.58633,
2011-06-30, 02:55:04,VALID,999.976,VALID,0,VALID,86.8937,VALID,0,VALID,22.2592,VALID,107,VALID,1.52422,
2011-06-30, 02:56:04,VALID,1000,VALID,0,VALID,86.1079,VALID,0,VALID,22.3763,VALID,105,VALID,1.21641,
2011-06-30, 02:57:04,VALID,999.962,VALID,0,VALID,85.8027,VALID,0,VALID,22.4153,VALID,106,VALID,1.21445,
2011-06-30, 02:58:04,VALID,999.928,VALID,0,VALID,85.5509,VALID,0,VALID,22.4738,VALID,100,VALID,1.54531,
2011-06-30, 02:59:04,VALID,999.929,VALID,0,VALID,85.1313,VALID,0,VALID,22.5909,VALID,118,VALID,1.12656,
2011-06-30, 03:00:04,VALID,999.928,VALID,0,VALID,84.8337,VALID,0,VALID,22.6299,VALID,90,VALID,0.925781,
2011-06-30, 03:01:04,VALID,999.853,VALID,0,VALID,84.5743,VALID,0,VALID,22.6299,VALID,71,VALID,0.610547,
2011-06-30, 03:02:04,VALID,999.843,VALID,0,VALID,84.1623,VALID,0,VALID,22.5306,VALID,59,VALID,0.240625,
2011-06-30, 03:03:04,VALID,999.872,VALID,0,VALID,85.0092,VALID,0,VALID,22.5128,VALID,118,VALID,1.36836,
2011-06-30, 03:04:04,VALID,999.863,VALID,0,VALID,85.0779,VALID,0,VALID,22.5519,VALID,111,VALID,0.971094,
2011-06-30, 03:05:04,VALID,999.849,VALID,0,VALID,84.8261,VALID,0,VALID,22.5909,VALID,110,VALID,1.32813,
2011-06-30, 03:06:04,VALID,999.834,VALID,0,VALID,84.4294,VALID,0,VALID,22.6494,VALID,133,VALID,1.39648,
2011-06-30, 03:07:04,VALID,999.835,VALID,0,VALID,83.2926,VALID,0,VALID,22.786,VALID,131,VALID,2.11953,
2011-06-30, 03:08:04,VALID,999.81,VALID,0,VALID,82.5296,VALID,0,VALID,22.9811,VALID,134,VALID,1.46992,
2011-06-30, 03:09:04,VALID,999.829,VALID,0,VALID,81.7438,VALID,0,VALID,23.1371,VALID,144,VALID,1.69336,
2011-06-30, 03:10:04,VALID,999.762,VALID,0,VALID,81.202,VALID,0,VALID,23.2737,VALID,117,VALID,1.11758,
2011-06-30, 03:11:04,VALID,999.821,VALID,0,VALID,81.202,VALID,0,VALID,23.3323,VALID,112,VALID,1.83945,
2011-06-30, 03:12:04,VALID,999.841,VALID,0,VALID,81.0571,VALID,0,VALID,23.3127,VALID,135,VALID,1.74805,
2011-06-30, 03:13:04,VALID,999.768,VALID,0,VALID,80.1415,VALID,0,VALID,23.4121,VALID,133,VALID,2.12617,
2011-06-30, 03:14:04,VALID,999.827,VALID,0,VALID,79.6761,VALID,0,VALID,23.5079,VALID,138,VALID,1.81758,
2011-06-30, 03:15:04,VALID,999.805,VALID,0,VALID,79.3328,VALID,0,VALID,23.5664,VALID,143,VALID,1.6668,
2011-06-30, 03:16:04,VALID,999.792,VALID,0,VALID,78.7987,VALID,0,VALID,23.6427,VALID,144,VALID,2.49336,
2011-06-30, 03:17:04,VALID,999.787,VALID,0,VALID,78.5622,VALID,0,VALID,23.7793,VALID,139,VALID,2.02891,
2011-06-30, 03:18:04,VALID,999.802,VALID,0,VALID,78.3333,VALID,0,VALID,23.8183,VALID,127,VALID,1.55273,
2011-06-30, 03:19:04,VALID,999.809,VALID,0,VALID,78.3562,VALID,0,VALID,23.8573,VALID,134,VALID,1.43711,
2011-06-30, 03:20:04,VALID,999.786,VALID,0,VALID,78.5317,VALID,0,VALID,23.7988,VALID,146,VALID,0.946875,
2011-06-30, 03:21:04,VALID,999.823,VALID,0,VALID,78.6766,VALID,0,VALID,23.7597,VALID,173,VALID,1.04297,
2011-06-30, 03:22:04,VALID,999.794,VALID,0,VALID,78.669,VALID,0,VALID,23.7597,VALID,147,VALID,1.67656,
2011-06-30, 03:23:04,VALID,999.829,VALID,0,VALID,78.6156,VALID,0,VALID,23.797,VALID,146,VALID,1.79023,
2011-06-30, 03:24:04,VALID,999.83,VALID,0,VALID,78.6614,VALID,0,VALID,23.8183,VALID,130,VALID,1.91914,
2011-06-30, 03:25:04,VALID,999.822,VALID,0,VALID,78.7911,VALID,0,VALID,23.7988,VALID,135,VALID,1.49883,
2011-06-30, 03:26:04,VALID,999.848,VALID,0,VALID,78.875,VALID,0,VALID,23.8183,VALID,132,VALID,1.28867,
2011-06-30, 03:27:04,VALID,999.882,VALID,0,VALID,79.0429,VALID,0,VALID,23.7988,VALID,139,VALID,1.25078,
2011-06-30, 03:28:04,VALID,999.923,VALID,0,VALID,79.3786,VALID,0,VALID,23.7207,VALID,152,VALID,0.95,
2011-06-30, 03:29:04,VALID,999.989,VALID,0,VALID,79.9432,VALID,0,VALID,23.6232,VALID,149,VALID,1.25195,
2011-06-30, 03:30:04,VALID,999.973,VALID,0,VALID,80.1797,VALID,0,VALID,23.5841,VALID,153,VALID,1.8043,
2011-06-30, 03:31:04,VALID,999.943,VALID,0,VALID,80.1873,VALID,0,VALID,23.5664,VALID,124,VALID,1.87617,
2011-06-30, 03:32:04,VALID,999.95,VALID,0,VALID,80.2865,VALID,0,VALID,23.5859,VALID,121,VALID,1.69805,
2011-06-30, 03:33:04,VALID,999.942,VALID,0,VALID,80.2941,VALID,0,VALID,23.5664,VALID,130,VALID,1.83008,
2011-06-30, 03:34:04,VALID,999.974,VALID,0,VALID,80.2255,VALID,0,VALID,23.5664,VALID,149,VALID,1.66211,
2011-06-30, 03:35:04,VALID,999.951,VALID,0,VALID,80.2865,VALID,0,VALID,23.5664,VALID,147,VALID,0.9625,
2011-06-30, 03:36:04,VALID,999.941,VALID,0,VALID,79.8287,VALID,0,VALID,23.5274,VALID,130,VALID,1.71055,
2011-06-30, 03:37:04,VALID,999.912,VALID,0,VALID,79.8669,VALID,0,VALID,23.5469,VALID,142,VALID,1.47891,
2011-06-30, 03:38:04,VALID,999.878,VALID,0,VALID,79.7372,VALID,0,VALID,23.5469,VALID,134,VALID,1.40664,
2011-06-30, 03:39:04,VALID,999.845,VALID,0,VALID,76.0597,VALID,0,VALID,23.5859,VALID,135,VALID,3.3793,
2011-06-30, 03:40:04,VALID,999.899,VALID,0,VALID,76.9066,VALID,0,VALID,23.978,VALID,134,VALID,1.99883,
2011-06-30, 03:41:04,VALID,999.862,VALID,0,VALID,74.1675,VALID,0,VALID,24.0738,VALID,124,VALID,2.42227,
2011-06-30, 03:42:04,VALID,999.879,VALID,0,VALID,73.8395,VALID,0,VALID,24.347,VALID,165,VALID,2.20352,
2011-06-30, 03:43:04,VALID,999.887,VALID,0,VALID,73.8624,VALID,0,VALID,24.4446,VALID,145,VALID,2.82773,
2011-06-30, 03:44:04,VALID,999.91,VALID,0,VALID,74.1675,VALID,0,VALID,24.4837,VALID,142,VALID,1.81094,
2011-06-30, 03:45:04,VALID,999.936,VALID,0,VALID,74.8237,VALID,0,VALID,24.4056,VALID,145,VALID,1.48867,